Location: Bugaj
(49.9333°N, 20.0167°E)
Time: 06:25:10
(UTC+00:00)

Daily predictions for brighter satellites

Satellite Brightness Start Highest point End
(mag) Time Altitude Azimuth Time Altitude Azimuth Time Altitude Azimuth
Cosmos 2263 Rocket 2.7 16:43:50 10° NNW 16:49:16 43° NE 16:54:40 10° ESE
Spot 1 4.4 16:46:26 10° NNE 16:50:32 41° E 16:54:26 10° S
Cosmos 2360 4.3 16:46:37 10° SSW 16:52:15 63° ESE 16:57:55 10° NE
MINOTAUR 4 R/B 4.0 16:50:15 10° NNE 16:53:46 90° NW 16:57:14 10° SSW
Cosmos 1242 Rocket 3.1 16:51:00 10° SSE 16:54:16 35° E 16:57:33 10° NNE
SL-14 R/B 3.9 16:51:03 10° N 16:54:42 35° ENE 16:58:22 10° SE
Cosmos 1674 Rocket 4.2 16:53:24 10° N 16:57:27 34° ENE 17:01:30 10° SE
COBE Rocket 3.9 16:54:42 10° SSE 16:59:29 58° ENE 17:04:11 10° N
YAOGAN 1 2.7 16:55:20 10° SE 16:59:31 51° ENE 17:03:44 10° N
Cosmos 1805 3.8 16:56:08 10° SSE 16:59:42 36° E 17:03:17 10° NNE
USA 267 4.0 16:53:50 10° SE 17:00:14 54° SW 17:06:39 10° WNW
Cosmos 2082 3.7 16:54:56 10° NNW 17:00:42 78° ENE 17:06:26 10° SSE
SKYMED 2 3.6 16:56:20 10° NNE 17:00:43 85° ESE 17:05:03 10° SSW
DMSP B5D2-2 4.1 16:55:39 10° NNE 17:00:59 82° ESE 17:06:16 10° SSW
Cosmos 676 Rocket 4.0 16:57:04 10° SSW 17:02:15 84° ESE 17:07:27 10° NNE
Cosmos 1726 3.1 17:01:22 10° SE 17:04:22 25° E 17:07:24 10° NE
Cosmos 1674 3.4 17:04:57 10° NNW 17:08:40 58° W 17:12:19 10° S
OBJECT-B 2.1 17:08:06 13° E 17:09:08 15° ENE 17:10:46 10° NNE
Cosmos 1697 Rocket 2.7 17:04:46 10° SSW 17:10:23 85° ESE 17:16:03 10° NNE
Cosmos 2279 Rocket 4.0 17:05:09 10° N 17:11:27 81° E 17:17:43 10° SSE
Cosmos 1766 4.2 17:10:19 10° SSE 17:13:36 26° E 17:16:55 10° NNE
Cosmos 2180 Rocket 4.5 17:10:29 10° N 17:16:43 69° ENE 17:22:59 10° SSE
Aureole 1 4.1 17:16:03 10° SSW 17:19:04 74° ESE 17:22:30 10° NNE
Cosmos 2221 Rocket 3.6 17:15:08 10° N 17:19:41 74° E 17:24:12 10° SSE
ASTEX 1 3.5 17:15:40 10° N 17:20:40 89° W 17:25:41 10° S
ATLAS 2AS CENTAUR R/B 4.3 17:18:49 10° WNW 17:25:28 32° NNW 17:31:49 10° NE
IGS 5A 4.4 17:23:23 13° ESE 17:26:21 29° ENE 17:29:56 10° N
Cosmos 1378 Rocket 3.5 17:22:25 10° N 17:26:49 64° ENE 17:31:08 10° SSE
Resurs 01 Rocket 3.4 17:27:52 14° ENE 17:28:56 15° ENE 17:31:22 10° NNE
USA 229 DEB 4.5 17:23:22 10° NW 17:30:36 62° SW 17:38:19 10° SSE
USA 229 4.4 17:23:28 10° NW 17:30:42 62° SW 17:38:25 10° SSE
Cosmos 540 Rocket 4.2 17:28:13 10° NNW 17:33:13 56° WSW 17:38:12 10° S
Cosmos 2227 Rocket 4.1 17:28:37 10° NW 17:33:31 31° WSW 17:38:24 10° SSW
Meteor 2-14 Rocket 4.4 17:27:59 10° S 17:33:57 63° E 17:39:57 10° NNE
Cosmos 1733 3.2 17:30:21 10° S 17:34:06 84° W 17:37:51 10° N
Cosmos 1733 Rocket 3.2 17:34:35 10° SSW 17:39:01 81° W 17:43:30 10° N
Cosmos 1470 3.9 17:40:47 22° E 17:40:47 22° E 17:43:30 10° NE
CZ-4B R/B 3.7 17:36:28 10° S 17:41:46 62° WSW 17:47:13 10° NNW
Cosmos 2322 Rocket4.317:46:11ENE17:46:11ENE17:37:35SSE
Cosmos 841 Rocket 3.8 17:39:04 10° NNW 17:44:14 69° WSW 17:49:21 10° SSE
CSL-04 Rocket 3.8 17:40:02 11° SE 17:44:56 51° ENE 17:50:10 10° N
Cosmos 2084 3.1 17:41:31 10° SW 17:45:21 85° NW 17:49:11 10° NE
Feng Yun 1-1 Rocket 4.2 17:40:57 10° SSE 17:46:28 88° WSW 17:51:56 10° NNW
Cosmos 1850 Rocket 3.9 17:42:02 10° SSW 17:47:15 82° ESE 17:52:33 10° NNE
ISS -3.2 17:45:03 10° WNW 17:48:20 51° SSW 17:49:52 27° SE
COSMO-SKYMED 1 4.4 17:44:42 10° N 17:48:39 34° WNW 17:52:34 10° SW
Okean-O 2.9 17:46:36 19° SE 17:49:27 46° ENE 17:53:43 10° N
Cosmos 1980 Rocket 2.1 17:44:57 10° SSW 17:50:35 88° ESE 17:56:15 10° NNE
Resurs 1-3 4.1 17:48:54 24° ESE 17:50:56 38° ENE 17:55:01 10° N
Cosmos 1570 Rocket 4.2 17:45:54 10° NNW 17:51:05 54° ENE 17:54:22 22° SE
Meteor 2-21 Rocket 4.4 17:45:10 10° S 17:51:05 60° E 17:57:03 10° NNE
Meteor 1-12 Rocket 4.4 17:46:15 10° S 17:52:07 60° E 17:58:03 10° NNE
CZ-4 R/B 1.8 17:48:12 10° S 17:52:20 66° WSW 17:56:32 10° NNW
SJ-6B 2.7 17:54:51 25° SE 17:56:50 58° ENE 18:00:33 10° N
Cosmos 2369 3.9 17:52:44 10° SSW 17:58:28 78° WNW 18:04:13 10° NNE
Cosmos 489 Rocket 4.5 17:54:46 10° S 18:01:01 62° ESE 18:07:15 10° NNE
deb Chang Zheng 4 4.0 18:04:53 35° E 18:05:28 37° ENE 18:09:17 10° N
Cosmos 2278 3.6 18:00:10 10° SSW 18:05:49 68° ESE 18:11:29 10° NNE
USA 215 3.8 17:59:57 11° ENE 18:06:08 56° NNW 18:12:29 10° W
Meteor 1-24 Rocket 3.6 18:00:57 10° N 18:06:12 57° ENE 18:09:12 25° SE
USA 186 1.7 18:06:55 35° SSE 18:08:12 87° ENE 18:11:34 10° NNW
Meteor 2-16 Rocket 4.4 18:02:08 10° S 18:08:12 69° E 18:14:20 10° NNE
SL-16 R/B 2.6 18:04:06 10° S 18:09:15 37° ESE 18:14:26 10° NE
Cosmos 1437 Rocket 2.5 18:10:38 10° S 18:14:21 65° E 18:18:04 10° NNE
Cosmos 2208 Rocket 4.0 18:09:03 10° NNW 18:14:24 66° ENE 18:16:49 33° SE
Cosmos 2285 Rocket 4.0 18:09:15 10° NNW 18:15:37 83° WSW 18:20:53 16° SSE
Cosmos 1844 Rocket 3.1 18:10:27 10° NNW 18:15:53 44° NE 18:17:37 35° E
Cosmos 1741 Rocket 4.4 18:11:00 10° SW 18:16:15 65° WNW 18:21:31 10° NNE
SL-4 R/B 2.3 18:12:07 10° WNW 18:16:37 72° SSW 18:18:03 43° SE
MINOTAUR IV R/B 4.5 18:12:16 10° SSW 18:16:49 84° ESE 18:21:22 10° NNE
Meteor 1-22 Rocket 4.1 18:13:23 10° S 18:18:39 59° E 18:24:08 10° NNE
Cosmos 2026 Rocket 3.9 18:12:50 10° SSE 18:18:43 55° E 18:24:37 10° NNE
Cosmos 2278 Rocket 4.2 18:16:27 10° N 18:19:18 14° NNE 18:21:13 12° NE
USA 81 4.0 18:15:25 10° N 18:20:41 63° E 18:23:04 32° SSE
Okean O Rocket 3.4 18:17:57 10° SSW 18:21:49 31° W 18:25:44 10° NNW
Cosmos 1553 Rocket 4.3 18:17:06 10° N 18:23:10 46° ENE 18:25:03 36° ESE
Cosmos 1908 Rocket 3.6 18:18:57 10° SSW 18:23:17 78° W 18:27:38 10° N
Landsat 5 3.6 18:20:56 10° NNE 18:25:28 90° NE 18:29:57 10° SSW
Nadezhda 4 Rocket 4.2 18:19:17 10° SSW 18:25:36 73° WNW 18:31:57 10° N
Cosmos 1814 Rocket 4.5 18:21:27 10° NNW 18:26:39 59° WSW 18:30:29 18° S
Cosmos 2292 Rocket 3.8 18:21:55 10° S 18:27:36 87° W 18:31:51 10° N
Cosmos 1782 Rocket 3.4 18:29:51 49° SSE 18:30:52 70° E 18:35:13 10° NNE
USA 281 4.2 18:29:29 25° ENE 18:31:15 29° NE 18:36:42 10° NNW
BREEZE M DEB (TANK) 4.0 18:28:18 10° SW 18:31:25 22° S 18:31:25 22° S
Cosmos 2263 Rocket 3.4 18:27:54 10° NW 18:33:11 40° WSW 18:38:25 10° S
Cosmos 1844 3.8 18:31:54 10° NNW 18:37:21 52° NE 18:38:13 47° E
Meteor 2-5 Rocket 3.8 18:32:02 10° NNW 18:37:36 74° W 18:41:16 22° S
Meteor 1-15 Rocket 4.3 18:33:24 10° SSW 18:38:58 74° WNW 18:44:34 10° N
H-2A R/B 2.4 18:39:28 62° NNE 18:39:28 62° NNE 18:42:54 10° N
OBJECT-B 2.7 18:38:57 21° W 18:39:03 21° W 18:41:09 10° NW
Cosmos 1726 4.3 18:36:03 10° SW 18:39:11 27° WNW 18:42:22 10° NNW
MetOp-A 3.4 18:43:45 64° N 18:43:45 64° N 18:47:08 10° NNW
MetOp-B 4.5 18:50:24 47° ENE 18:50:24 47° ENE 18:55:23 10° N
Cosmos 1025 Rocket 3.0 18:46:48 10° NNW 18:51:07 77° W 18:51:17 75° SW
SPOT 1/Viking Rocket 3.4 18:51:29 68° ESE 18:51:53 72° ENE 18:57:02 10° N
Cosmos 2084 Rocket 3.7 18:49:12 10° NW 18:52:17 56° NNW 18:52:17 56° NNW
Spot 2 4.2 18:56:37 62° N 18:56:37 62° N 19:00:14 10° NNW
SPOT 3 Rocket 4.4 18:57:08 35° NE 18:57:08 35° NE 19:00:59 10° N
Cosmos 1975 Rocket 3.5 18:56:00 10° NNW 19:00:23 59° W 19:00:50 56° SW
Landsat 7 4.4 19:00:02 38° SSW 19:01:27 53° W 19:06:05 10° NNW
Cosmos 1092 Rocket 4.3 18:56:22 10° SSW 19:02:40 67° WNW 19:08:55 10° N
Resurs 01 Rocket 1.9 19:05:25 66° NNW 19:05:25 66° NNW 19:09:17 10° NNW
Cosmos 968 Rocket 3.9 19:05:58 10° SW 19:11:10 61° WNW 19:16:22 10° NNE
IRS-1A Rocket 4.2 19:14:23 75° S 19:14:53 85° WSW 19:20:42 10° NNW
Cosmos 1470 4.3 19:15:56 33° W 19:16:15 33° WNW 19:19:48 10° N
ATLAS 2AS CENTAUR R/B 4.2 19:12:18 10° NW 19:18:35 29° N 19:21:35 22° NE
Ariane Rocket 3.3 19:25:15 61° N 19:25:15 61° N 19:29:27 10° NNW
Cosmos 2322 Rocket 3.0 19:27:51 40° NNE 19:27:51 40° NNE 19:31:24 10° NNE
ERS-1 Rocket 4.3 19:27:51 30° NNE 19:27:51 30° NNE 19:30:42 10° N
Terra 3.6 19:28:17 22° NNE 19:28:17 22° NNE 19:30:19 10° N
NOSS 3-4 (A) 4.1 19:23:58 10° NW 19:30:30 53° NE 19:31:05 51° NE
NOSS 3-4 (C) 4.1 19:24:05 10° NW 19:30:36 52° NE 19:31:11 51° NE
S3M 3.9 19:25:57 10° N 19:31:54 79° NNE 19:31:54 79° NNE
Gbstr 26 Del rocket 4.4 19:24:55 10° WSW 19:32:53 87° NNW 19:34:42 59° ENE
Cosmos 1980 Rocket 4.4 19:30:57 10° W 19:35:22 23° NW 19:39:47 10° NNE
SPOT 5 4.3 19:41:30 32° N 19:41:30 32° N 19:44:06 10° N
USA 215 3.9 19:47:18 43° NE 19:48:36 49° N 19:54:51 10° WNW
SL-16 R/B 3.2 19:47:52 10° SW 19:53:18 45° NW 19:58:45 10° NNE
Cosmos 1844 Rocket 3.8 19:54:32 10° NW 19:59:17 37° W 19:59:17 37° W
Cosmos 2278 Rocket 3.5 19:59:33 10° NNW 20:03:03 33° N 20:03:03 33° N
Cosmos 1943 Rocket 4.1 20:10:44 10° N 20:13:27 20° NNE 20:13:27 20° NNE
USA 281 3.5 20:16:22 63° NW 20:16:22 63° NW 20:21:47 10° NNW
Cosmos 2360 Rocket 4.2 20:46:44 22° N 20:46:44 22° N 20:48:55 10° NNE
Cosmos 2322 Rocket 4.3 21:09:30 21° NW 21:10:33 22° NW 21:14:57 10° NNE
ATLAS 2AS CENTAUR R/B 3.8 21:04:02 10° NW 21:09:00 41° NNW 21:09:00 41° NNW
Cosmos 2344 4.5 22:45:53 42° NNE 22:45:53 42° NNE 22:51:38 10° NE
SL-16 R/B 4.0 23:45:23 33° NNE 23:45:23 33° NNE 23:49:04 10° N
